Location: Cerroniocc
(13.7547°S, 72.0222°W)
Time: 19:59:23
(UTC+00:00)

CREW DRAGON DEMO-1 DEB - Pass Details

Date: 05 July 2020
Orbit: 368 x 372 km, 51.6° (Epoch: 10 August)

Event Time Altitude Azimuth Distance (km) Brightness Sun altitude
Rises 23:24:54 0° 212° (SSW) 2,249 6.9 -12.5°
Reaches altitude 10° 23:26:59 10° 208° (SSW) 1,392 5.8 -13.0°
Maximum altitude 23:30:03 59° 128° (SE) 441 2.8 -13.7°
Drops below altitude 10° 23:33:06 10° 47° (NE) 1,375 5.4 -14.4°
Enters shadow 23:33:06 10° 47° (NE) 1,381 5.4 -14.4°
